Regional Weather Roundup
Issued by NWS Upton, NY

Current Version | Previous Version | Text Only | Print | Product List | Glossary On
Versions: 1 2 3 4 5 6 7 8 9 10 11 12 13 14 15 16 17 18 19 20 21 22 23 24 25 26 27 28 29 30 31 32 33 34 35 36 37 38 39 40 41 42 43 44 45 46 47 48 49 50
000
ASUS41 KOKX 010505
RWROKX

REGIONAL WEATHER ROUNDUP
NATIONAL WEATHER SERVICE NEW YORK NY
100 AM EDT WED OCT 01 2014

NOTE: "FAIR" INDICATES FEW OR NO CLOUDS BELOW 12,000 FEET WITH NO
SIGNIFICANT WEATHER AND/OR OBSTRUCTIONS TO VISIBILITY.

NYZ071-072-176-178-NJZ106-104-010600-
NEW YORK CITY METRO AREA


CITY           SKY/WX    TMP DP  RH WIND       PRES   REMARKS
CENTRAL PARK   CLOUDY    62  57  83 VRB6      30.01S
LAGUARDIA APRT CLOUDY    62  59  90 NE13      29.98S
KENNEDY INTL   LGT RAIN  62  58  86 NE6       29.99S
NEWARK/LIBERTY MOCLDY    64  58  80 NE10      29.98S
BRNX BOT. GARD   N/A     59  57  94 NE8       30.01R
TETERBORO      CLOUDY    63  56  78 NE8       29.98S
$$

NYZ177-179-078>081-010600-
LONG ISLAND NEW YORK

CITY           SKY/WX    TMP DP  RH WIND       PRES   REMARKS
FARMINGDALE    CLOUDY    62  59  90 NE6       29.99S
ISLIP          LGT RAIN  61  58  90 NE8       29.97S
SHIRLEY        LGT RAIN  60  57  89 N5        29.99S
WESTHAMPTON    CLOUDY    60  57  89 N7        29.99F
MONTAUK POINT    N/A     60  57  89 NE9       30.00S
$$

NYZ052-065-067-010600-
HUDSON VALLEY

CITY           SKY/WX    TMP DP  RH WIND       PRES   REMARKS
WHITE PLAINS   CLOUDY    60  56  86 NE5       29.99F
NEWBURGH       MOCLDY    59  57  94 E8        30.02S
MONTGOMERY     MOCLDY    55  53  93 NE5       30.01S
POUGHKEEPSIE   CLOUDY    60  56  86 CALM      30.00F
ALBANY         CLOUDY    61  55  81 CALM      30.03R
$$

NJZ001-105-106-008-010-013-015-019>022-104-010600-
NEW JERSEY

CITY           SKY/WX    TMP DP  RH WIND       PRES   REMARKS
NEWARK/LIBERTY MOCLDY    64  58  80 NE10      29.98S
TETERBORO      CLOUDY    63  56  78 NE8       29.98S
CALDWELL       MOCLDY    62  55  77 NE7       30.00S
MORRISTOWN     CLOUDY    63  57  82 CALM      29.99S
SOMERVILLE     CLOUDY    58  55  90 NW3       29.97S
LINDEN         CLOUDY    68  61  78 E7        30.00R
SUSSEX         MOCLDY    61  57  87 CALM      30.00S
ANDOVER          N/A     58  57  97 CALM      30.00R
TRENTON        CLOUDY    63  58  83 NE5       29.97S
MILLVILLE      MOCLDY    62  59  90 N6        29.96R
ATLANTIC CITY  LGT RAIN  62  61  96 N7        29.94F
WRIGHTSTOWN    CLOUDY    62  61  99 NE5       29.95S
TOMS RIVER     CLOUDY    63  61  94 NE5       29.97S
BELMAR         CLOUDY    63  57  82 NE9       29.97S
$$

PAZ047>061-062-071-010600-
EASTERN PENNSYLVANIA

CITY           SKY/WX    TMP DP  RH WIND       PRES   REMARKS
PHILADELPHIA   MOCLDY    64  58  80 NE8       29.98R
ALLENTOWN      CLOUDY    62  58  86 CALM      29.99S
SCRANTON       MOCLDY    60  56  86 E3        29.99R
$$

CTZ002-004>006-009-010-012-RIZ004-006-007-MAZ004-011-015-010600-
SOUTHERN NEW ENGLAND
 IN CT

CITY           SKY/WX    TMP DP  RH WIND       PRES   REMARKS
BRADLEY INTL   LGT RAIN  59  56  89 N7        30.01F
HARTFORD       LGT RAIN  59  57  93 VRB6      30.02S
DANBURY        CLOUDY    59  55  87 N5        30.02F
WTRBRY/OXFORD  CLOUDY    57  52  82 NE5       30.03S
BRIDGEPORT     LGT RAIN  61  57  87 NE10      30.00S
MERIDEN        LGT RAIN  59  56  89 NW3       30.02R FOG
NEW HAVEN      CLOUDY    61  57  87 N10       30.00S
CHESTER        DRIZZLE   57  55  94 NE6       30.01S
GROTON         CLOUDY    57  56  96 N9        29.99F
WILLIMANTIC    CLOUDY    58  55  90 NE7       30.02S

 IN RI

CITY           SKY/WX    TMP DP  RH WIND       PRES   REMARKS
PROVIDENCE     CLOUDY    57  55  93 N12       30.02S
BLOCK ISLAND   CLOUDY    59  55  88 NE10G22   29.99S
WESTERLY       CLOUDY    58  55  90 N8        30.00S

 IN MA

CITY           SKY/WX    TMP DP  RH WIND       PRES   REMARKS
BOSTON         CLOUDY    57  55  93 N8        30.04S
WORCESTER      CLOUDY    54  54 100 NE8       30.04S FOG
WESTFIELD      CLOUDY    59  56  89 N6        30.03S FOG
PROVINCETOWN   CLOUDY    61  57  88 NE15      30.01R
NANTUCKET      CLOUDY    63  61  93 N16       29.95S
$$

ANZ330-335-338-340-345-350-353-355-010600-
COASTAL MARINE OBSERVATIONS


STATION/POSITION TIME  SKY/WX   TEMP    WIND        PRES    VSBY  WAVE
                                AIR SEA DIR/SP/G                  HT/PER
                 (UTC)          (F)     (DEG/KT/KT) (MB)    (MI)  (FT/S)
NY HARB ENTRANCE NOT AVBL
4S FIRE IS       0500               68                N/A           4/ 5
20S FIRE ISLAND  0500            63 67   50/ 17/ 19 1014.0          5/ 6
23SW MTP         0500                                 N/A           5/ 6
HUDSON CANYON    0500            67 70   50/ 17/ 19 1012.6          5/ 6
EXECUTION ROCKS  0500            63 68   60/ 14/ 19   N/A
WESTERN LI SOUND 0500            62      40/ 10/ 14   N/A           2/ 4
CENTRAL LI SOUND 0400            61 69   70/ 14/ 17   N/A           2/ 4
EASTERN LI SOUND 0400            60 67   30/ 12/ 16   N/A
ROBBINS REEF     0400            63      60/ 10/ 12 1013.9
$$


>>>>>>>>>>>>>>>>>>>>>>>>>>>> KEY <<<<<<<<<<<<<<<<<<<<<<<<<<<
>                                                          <
>     SKY/WX - SKY CONDITION/PRESENT WEATHER               <
>     TMP    - TEMPERATURE IN FAHRENHEIT                   <
>     DP     - DEWPOINT IN FAHRENHEIT                      <
>     RH     - RELATIVE HUMIDITY IN PERCENT                <
>     WIND   - DIRECTION AND SPEED IN MPH                  <
>     PRES   - MEAN SEA LEVEL PRESSURE IN INCHES OF HG     <
>     WCI    - WIND CHILL INDEX                            <
>     VSB    - VISIBILITY IN MILES                         <
>     HX     - HEAT INDEX                                  <
>     TC     - TEMPERATURE IN CELSIUS                      <
>     VRB    - VARIABLE WIND DIRECTION                     <
>                                                          <
>>>>>>>>>>>>>>>>>>>>>>>>>>>> KEY <<<<<<<<<<<<<<<<<<<<<<<<<<<





USA.gov is the U.S. government's official web portal to all federal, state and local government web resources and services.